• In Deutschland
  • Länderverzeichnis
  • Für 7 Tage
  • Wassertemperatur
  • Satellitenkarten
  • Wetterkarte
  • Widgets
  • user-avatar
    Anmelden

    Stündliche Wetter Bad Wurzach

    Heute, 23 Juni, Samstag

    Zeit Temperatur Niederschläge Wind Luftdruck Luftfeuchtigkeit
    00:00 +7°C° 0 mm 1 m/S 707 mmHg 91%
    01:00 +7°C° 0 mm 1 m/S 707 mmHg 91%
    02:00 +6°C° 0 mm 1 m/S 707 mmHg 92%
    03:00 +6°C° 0 mm 1 m/S 707 mmHg 92%
    04:00 +6°C° 0 mm 1 m/S 707 mmHg 93%
    05:00 +7°C° 0 mm 1 m/S 707 mmHg 89%
    06:00 +9°C° 0 mm 1 m/S 707 mmHg 85%
    07:00 +10°C° 0 mm 1 m/S 707 mmHg 81%
    08:00 +12°C° 0 mm 1 m/S 707 mmHg 74%
    09:00 +13°C° 0 mm 2 m/S 707 mmHg 68%
    10:00 +15°C° 0 mm 2 m/S 707 mmHg 62%
    11:00 +16°C° 0 mm 2 m/S 707 mmHg 60%
    12:00 +16°C° 0 mm 2 m/S 707 mmHg 58%
    13:00 +17°C° 0 mm 3 m/S 707 mmHg 56%
    14:00 +17°C° 0 mm 3 m/S 707 mmHg 57%
    15:00 +17°C° 0 mm 3 m/S 706 mmHg 58%
    16:00 +17°C° 0 mm 3 m/S 706 mmHg 59%
    17:00 +16°C° 0 mm 3 m/S 706 mmHg 64%
    18:00 +16°C° 0 mm 2 m/S 706 mmHg 70%
    19:00 +15°C° 0 mm 2 m/S 706 mmHg 76%
    20:00 +13°C° 0 mm 2 m/S 706 mmHg 81%
    21:00 +10°C° 0 mm 2 m/S 706 mmHg 87%
    22:00 +9°C° 0 mm 1 m/S 707 mmHg 92%
    23:00 +9°C° 0 mm 1 m/S 706 mmHg 93%

    Morgen, 24 Juni, Sonntag

    Zeit Temperatur Niederschläge Wind Luftdruck Luftfeuchtigkeit
    00:00 +8°C° 0 mm 1 m/S 706 mmHg 94%
    01:00 +8°C° 0 mm 1 m/S 706 mmHg 94%
    02:00 +8°C° 0 mm 1 m/S 706 mmHg 95%
    03:00 +7°C° 0 mm 1 m/S 705 mmHg 95%
    04:00 +7°C° 0 mm 1 m/S 705 mmHg 95%
    05:00 +8°C° 0 mm 1 m/S 705 mmHg 91%
    06:00 +10°C° 0 mm 1 m/S 705 mmHg 88%
    07:00 +11°C° 0 mm 1 m/S 705 mmHg 84%
    08:00 +13°C° 0 mm 1 m/S 705 mmHg 78%
    09:00 +14°C° 0 mm 1 m/S 705 mmHg 72%
    10:00 +16°C° 0 mm 2 m/S 705 mmHg 65%
    11:00 +16°C° 0 mm 2 m/S 705 mmHg 63%
    12:00 +17°C° 0 mm 2 m/S 705 mmHg 62%
    13:00 +18°C° 0 mm 2 m/S 705 mmHg 60%
    14:00 +18°C° 0,1 mm 3 m/S 705 mmHg 62%
    15:00 +18°C° 0,1 mm 3 m/S 705 mmHg 64%
    16:00 +18°C° 0,1 mm 3 m/S 705 mmHg 65%
    17:00 +17°C° 0,1 mm 3 m/S 705 mmHg 71%
    18:00 +16°C° 0,1 mm 2 m/S 705 mmHg 77%
    19:00 +16°C° 0,1 mm 2 m/S 704 mmHg 82%
    20:00 +14°C° 0 mm 2 m/S 705 mmHg 86%
    21:00 +13°C° 0 mm 2 m/S 705 mmHg 90%
    22:00 +11°C° 0 mm 1 m/S 705 mmHg 94%
    23:00 +11°C° 0 mm 1 m/S 705 mmHg 95%

    übermorgen, 25 Juni, Montag

    Zeit Temperatur Niederschläge Wind Luftdruck Luftfeuchtigkeit
    00:00 +10°C° 0 mm 1 m/S 705 mmHg 95%
    01:00 +10°C° 0 mm 1 m/S 705 mmHg 95%
    02:00 +10°C° 0 mm 1 m/S 705 mmHg 95%
    03:00 +9°C° 0 mm 1 m/S 705 mmHg 96%
    04:00 +9°C° 0 mm 1 m/S 705 mmHg 96%
    05:00 +10°C° 0 mm 1 m/S 705 mmHg 93%
    06:00 +12°C° 0 mm 1 m/S 705 mmHg 90%
    07:00 +13°C° 0 mm 1 m/S 705 mmHg 87%
    08:00 +14°C° 0 mm 2 m/S 706 mmHg 81%
    09:00 +16°C° 0 mm 2 m/S 706 mmHg 75%
    10:00 +17°C° 0 mm 3 m/S 706 mmHg 69%
    11:00 +18°C° 0 mm 3 m/S 706 mmHg 66%
    12:00 +19°C° 0 mm 3 m/S 706 mmHg 64%
    13:00 +19°C° 0 mm 3 m/S 706 mmHg 62%
    14:00 +19°C° 0,1 mm 3 m/S 706 mmHg 64%
    15:00 +19°C° 0,1 mm 4 m/S 706 mmHg 65%
    16:00 +19°C° 0,1 mm 4 m/S 706 mmHg 67%
    17:00 +19°C° 0,1 mm 3 m/S 706 mmHg 72%
    18:00 +18°C° 0,1 mm 3 m/S 706 mmHg 77%
    19:00 +17°C° 0,1 mm 3 m/S 706 mmHg 82%
    20:00 +14°C° 0 mm 3 m/S 707 mmHg 86%
    21:00 +14°C° 0 mm 2 m/S 707 mmHg 90%
    22:00 +12°C° 0 mm 2 m/S 707 mmHg 95%
    23:00 +12°C° 0 mm 2 m/S 707 mmHg 95%

    26 Juni, Dienstag

    Zeit Temperatur Niederschläge Wind Luftdruck Luftfeuchtigkeit
    00:00 +10°C° 0 mm 2 m/S 707 mmHg 95%
    01:00 +10°C° 0 mm 2 m/S 707 mmHg 96%
    02:00 +10°C° 0 mm 2 m/S 706 mmHg 96%
    03:00 +10°C° 0 mm 1 m/S 706 mmHg 96%
    04:00 +10°C° 0 mm 1 m/S 706 mmHg 96%
    05:00 +10°C° 0 mm 2 m/S 706 mmHg 93%
    06:00 +13°C° 0 mm 2 m/S 706 mmHg 89%
    07:00 +14°C° 0 mm 2 m/S 707 mmHg 86%
    08:00 +16°C° 0 mm 2 m/S 707 mmHg 79%
    09:00 +17°C° 0 mm 3 m/S 707 mmHg 73%
    10:00 +19°C° 0 mm 3 m/S 707 mmHg 66%
    11:00 +20°C° 0 mm 4 m/S 707 mmHg 65%
    12:00 +21°C° 0 mm 4 m/S 707 mmHg 63%
    13:00 +21°C° 0 mm 5 m/S 707 mmHg 62%
    14:00 +22°C° 0 mm 5 m/S 706 mmHg 63%
    15:00 +22°C° 0 mm 5 m/S 706 mmHg 64%
    16:00 +22°C° 0 mm 5 m/S 706 mmHg 65%
    17:00 +21°C° 0 mm 4 m/S 706 mmHg 69%
    18:00 +20°C° 0 mm 4 m/S 706 mmHg 74%
    19:00 +19°C° 0 mm 3 m/S 706 mmHg 79%
    20:00 +18°C° 0 mm 3 m/S 706 mmHg 83%
    21:00 +16°C° 0 mm 3 m/S 706 mmHg 87%
    22:00 +14°C° 0 mm 3 m/S 706 mmHg 91%
    23:00 +13°C° 0 mm 3 m/S 706 mmHg 92%

    27 Juni, Mittwoch

    Zeit Temperatur Niederschläge Wind Luftdruck Luftfeuchtigkeit
    00:00 +12°C° 0 mm 3 m/S 706 mmHg 93%
    01:00 +13°C° 0 mm 2 m/S 706 mmHg 94%
    02:00 +12°C° 0 mm 2 m/S 706 mmHg 94%
    03:00 +12°C° 0 mm 2 m/S 706 mmHg 94%
    04:00 +10°C° 0 mm 2 m/S 705 mmHg 94%
    05:00 +13°C° 0 mm 2 m/S 706 mmHg 90%
    06:00 +14°C° 0 mm 2 m/S 706 mmHg 86%
    07:00 +14°C° 0 mm 3 m/S 706 mmHg 83%
    08:00 +17°C° 0 mm 3 m/S 706 mmHg 76%
    09:00 +19°C° 0 mm 4 m/S 706 mmHg 70%
    10:00 +21°C° 0 mm 4 m/S 706 mmHg 64%
    11:00 +22°C° 0 mm 4 m/S 706 mmHg 61%
    12:00 +23°C° 0 mm 5 m/S 706 mmHg 59%
    13:00 +23°C° 0 mm 5 m/S 706 mmHg 57%
    14:00 +23°C° 0 mm 5 m/S 706 mmHg 58%
    15:00 +23°C° 0 mm 5 m/S 706 mmHg 59%
    16:00 +25°C° 0 mm 5 m/S 706 mmHg 60%
    17:00 +22°C° 0 mm 5 m/S 706 mmHg 65%
    18:00 +21°C° 0 mm 4 m/S 706 mmHg 69%
    19:00 +20°C° 0 mm 4 m/S 706 mmHg 74%
    20:00 +19°C° 0 mm 4 m/S 706 mmHg 76%
    21:00 +18°C° 0 mm 3 m/S 706 mmHg 78%
    22:00 +16°C° 0 mm 3 m/S 706 mmHg 80%
    23:00 +14°C° 0 mm 3 m/S 706 mmHg 82%

    28 Juni, Donnerstag

    Zeit Temperatur Niederschläge Wind Luftdruck Luftfeuchtigkeit
    00:00 +14°C° 0 mm 3 m/S 705 mmHg 84%
    01:00 +13°C° 0 mm 3 m/S 705 mmHg 87%
    02:00 +13°C° 0 mm 3 m/S 705 mmHg 89%
    03:00 +12°C° 0 mm 3 m/S 705 mmHg 91%
    04:00 +12°C° 0 mm 3 m/S 705 mmHg 93%
    05:00 +13°C° 0 mm 3 m/S 705 mmHg 89%
    06:00 +14°C° 0 mm 3 m/S 705 mmHg 86%
    07:00 +16°C° 0 mm 2 m/S 705 mmHg 82%
    08:00 +18°C° 0 mm 3 m/S 705 mmHg 77%
    09:00 +20°C° 0 mm 3 m/S 706 mmHg 73%
    10:00 +21°C° 0 mm 4 m/S 706 mmHg 68%
    11:00 +22°C° 0 mm 4 m/S 706 mmHg 66%
    12:00 +23°C° 0 mm 4 m/S 706 mmHg 63%
    13:00 +25°C° 0 mm 5 m/S 705 mmHg 60%
    14:00 +25°C° 0 mm 5 m/S 705 mmHg 61%
    15:00 +25°C° 0 mm 5 m/S 705 mmHg 61%
    16:00 +25°C° 0 mm 5 m/S 705 mmHg 61%
    17:00 +23°C° 0 mm 4 m/S 705 mmHg 66%
    18:00 +22°C° 0 mm 4 m/S 705 mmHg 70%
    19:00 +21°C° 0 mm 3 m/S 705 mmHg 75%
    20:00 +20°C° 0 mm 3 m/S 705 mmHg 77%
    21:00 +18°C° 0 mm 3 m/S 705 mmHg 80%
    22:00 +17°C° 0 mm 3 m/S 705 mmHg 82%
    23:00 +16°C° 0 mm 3 m/S 705 mmHg 85%
    Mehr zeigen